Regional Weather Roundup
Issued by NWS Midland/Odessa, TX

Skip options and go directly to product.
Home | Oldest Version | Previous Version | Current Version | All | Text Only | Save Text | Print | Product List | Glossary On

Skip product version selection by date and time.   
022
ASUS44 KMAF 030310
RWRMAF
MIDLAND AREA WEATHER ROUNDUP
NATIONAL WEATHER SERVICE MIDLAND TX
900 PM CST MON MAR 02 2015

...IN SOUTHWEST TEXAS AND SOUTHEAST NEW MEXICO...

CITY           SKY/WX    TMP DP  RH WIND       PRES   REMARKS
ALPINE         CLOUDY    44  39  84 CALM      30.11R
ANDREWS        CLOUDY    35  35 100 S8        30.08F FOG     WCI  29
ARTESIA        MOCLDY    37  37 100 SE18      30.02S WCI  27
BIG SPRING     CLOUDY    38  37  93 E6        30.12F WCI  34
CARLSBAD       CLOUDY    39  34  82 SE12      30.03F WCI  32
DRYDEN           N/A     47  40  76 CALM      30.08S
FORT STOCKTON  CLOUDY    39  37  92 NE6       30.07R WCI  35
GUAD PASS      NOT AVBL
HOBBS          CLOUDY    36  36 100 S10       30.05F WCI  28
MARFA          CLOUDY    48  36  61 N3        30.07R
MIDLAND AIRPK  FOG       38  38 100 CALM      30.10S VSB 3/4
MIDLAND INTL   FOG       37  37 100 E5        30.09R VSB 1/2 WCI  33
ODESSA         FOG       37  36  96 SE5       30.09R VSB 1/4 WCI  33
PECOS          CLOUDY    41  37  84 CALM      30.09R
PRESIDIO       FAIR      61  40  46 N6        29.98R
SEMINOLE       CLOUDY    35  35  99 S6        30.09R FOG     WCI  30
SNYDER         CLOUDY    35  34  99 S5        30.12S FOG     WCI  31
WINK           CLOUDY    41  34  76 E3        30.08R
$$
...OTHER STATIONS IN TEXAS...

CITY           SKY/WX    TMP DP  RH WIND       PRES   REMARKS
ABILENE        CLOUDY    37  35  92 S7        30.14R WCI  32
AMARILLO       CLOUDY    33  31  92 S16G24    29.97F FOG     WCI  23
AUSTIN         DRZL/FOG  42  41  96 N8        30.18S VSB 1/2 WCI  37
BROWNSVILLE    FOG       56  56 100 NW7       30.13R VSB 1
CORPUS CHRISTI DRZL/FOG  54  53  97 N5        30.15R VSB 1/2
DALLAS FTW     DRZL/FOG  39  39 100 CALM      30.19R VSB 1/2
DEL RIO        CLOUDY    50  46  86 SE8       30.13R
EL PASO        CLOUDY    57  50  77 S7        29.97R
HOUSTON INT    FOG       56  55  97 NE6       30.17S VSB 1/2
LUBBOCK        FOG       34  34 100 SW12      30.06R VSB 1/2 WCI  25
SAN ANGELO     CLOUDY    39  37  92 NE3       30.14R
SAN ANTONIO    DRZL/FOG  46  44  93 NE7       30.16R VSB 1/4
WACO           FOG       40  39  97 NE5       30.20S VSB 1/4 WCI  37
WICHITA FALLS  NOT AVBL
$$
...OTHER LOCATIONS IN NEW MEXICO...

CITY           SKY/WX    TMP DP  RH WIND       PRES   REMARKS
ALAMAGORDO     MOCLDY    55  48  76 S16       29.98S
ALBUQUERQUE    CLOUDY    52  41  66 S20       29.89R
CANNON AFB     CLOUDY    35  34  96 S8        29.98R WCI  29
CLOVIS         CLOUDY    34  32  93 S13       29.97F WCI  25
HOLLOMAN AFB   NOT AVBL
ROSWELL        CLOUDY    38  33  82 S16       29.99S WCI  29
RUIDOSO        MOCLDY    46  41  81 SW24G39   29.98R WCI  38
SANTA FE       CLOUDY    50  35  56 S14G24    29.87R
TRUTH OR CONSE CLOUDY    58  38  47 SW28G38   29.91R
TUCUMCARI      CLOUDY    37  34  89 SW7       29.91F WCI  32
$$

USA.gov is the U.S. government's official web portal to all federal, state and local government web resources and services.